{"data":{"norad_id":53935,"intl_designator":"2022-119BB","name":"STARLINK-5000","alt_names":[],"object_type":"PAYLOAD","status":"ACTIVE","operator":null,"country":"US","launch_date":"2022-09-24","launch_site_code":"AFETR","launch_vehicle":null,"mission":null,"orbit_class":"UNKNOWN","rcs_meters":null,"size_class":null,"mass_kg":null,"dimensions":null,"purposes":["comms"],"wikipedia_slug":null,"has_3d_model":false,"image_url":null,"decayed_at":null,"tle_current":{"epoch":"2026-05-25T04:00:03.998880Z","epoch_age_seconds":56831,"freshness":"FRESH","line1":"1 53935U 22119BB  26145.16671295  .00538698  00000+0  45349-2 0  9990","line2":"2 53935  53.2166 289.5637 0000879  48.7445 224.9567 15.67652422  5848","mean_motion":15.67652422,"eccentricity":8.79e-5,"inclination_deg":53.2166,"raan_deg":289.5637,"arg_perigee_deg":48.7445,"mean_anomaly_deg":224.9567,"bstar":0.0045349,"rev_number":584,"period_min":91.85709662368,"perigee_km":365.0284138808,"apogee_km":366.21396657064,"semimajor_km":6743.7581902257,"source":"CELESTRAK","updated_at":"2026-05-25T13:38:17.616343Z"}}}